Location: Eaton Estates
(41.3089°N, 82.0057°W)
Time: 10:45:13
(UTC+00:00)

KORONAS-FOTON - Visible Passes

Search period start: 20 October 2021 00:00
Search period end: 30 October 2021 00:00
Orbit: 504 x 531 km, 82.4° (Epoch: 19 October)

Date Brightness Start Highest point End Pass type
(mag) Time Alt. Az. Time Alt. Az. Time Alt. Az.
20 Oct 3.6 10:25:29 10° SSW 10:29:12 65° W 10:32:58 10° N visible
21 Oct 3.6 10:10:57 10° S 10:14:41 80° W 10:18:29 10° N visible
22 Oct 3.7 09:58:02 24° S 10:00:11 83° E 10:03:59 10° N visible
23 Oct 4.0 09:45:47 67° E 09:45:47 67° E 09:49:27 10° NNE visible
24 Oct 5.4 09:32:53 29° NNE 09:32:53 29° NNE 09:34:54 10° NNE visible
25 Oct 6.4 09:19:38 15° NNE 09:19:38 15° NNE 09:20:20 10° NNE visible
